THOR ABLESTAR DEB, 232

Orbit data source: Space-Track

THOR ABLESTAR DEB, 232 is space debris in LEO originally from a launch on Thu, 29 Jun 1961 UTC launched from the Air Force Eastern Test Range (AFETR). Debris objects in space refer to the collection of defunct objects orbiting the Earth. Examples of debris include non-operational satellites, rocket bodies, and fragments generated from explosions, collisions, or faulty payload assembly.

Loading next visibility...
Identifier
232, 1961-015BQ
Orbit
LEO
Country
Flag of USUS
Related business
Manufacturer
Unknown
Mission
Spacecraft
Bus & Motor
Unknown
Mass
Unknown
Launch date (UTC)
1961-06-29 (64 years ago)
Launch vehicle
Unknown
Launch site
Air Force Eastern Test Range (AFETR)
Object type
Payload
Rocket body
Debris
Shape & HBR
Unknown
Radar Cross Section
Medium (>0.1 m² and <1 m²)

Expand to show TLE details & history
Last TLE update: 1 day ago

TLE from 1 day ago
0 THOR ABLESTAR DEB
1 00232U 61015BQ  25259.21776197  .00000220  00000-0  19697-3 0  9992
2 00232  66.8211 172.9944 0063351 296.8117  62.6497 14.00599371268628
Epoch: 2025-09-16T05:13Z
TLE epoch observation values (Epoch: 2025-09-16T05:13:34.634Z)
Latitude
0.00002°
Longitude
99.18887°
Altitude
872.877 km
Speed
7.427 km/s
True Right ascension
11h 31m 58s
True Declination
0° 00' 00"
Sunlit
Object was in daylight at epoch
Visualization orbit readout
Latitude
Unknown
Longitude
Unknown
Altitude
Unknown
Speed
Unknown
Apparent Right ascension
Unknown
Apparent Declination
Unknown
Sunlit
N/A
Visualization observer readout
Local Sidereal Time
23:43:32
Azimuth
Unknown
Elevation
Unknown
Doppler factor
Unknown
Orbital elements
Apogee altitude
936.149 km
Perigee altitude
844.059 km
Semi-major axis
7,268.241 km
Eccentricity
0.00634
Inclination
66.8211°
RAAN
172.9944°
Arg. of periapsis
296.8117°
True anomaly
63.29684°
Mean anomaly
62.6497°
Eccentric anomaly
62.97304°
Mean motion
3.50267 °/min
Orbital period
102.78 mins
BSTAR
0.00019697
Loading maneuver chart data...
Computing Atmospheric mass density...

Documentation

Showing up to 5 results
|